Location: *
(51.0333°S, 178.4667°E)
Time: 21:25:00
(UTC+00:00)

STARLINK-71 - Pass Details

Date: 15 November 2019
Orbit: 529 x 530 km, 53.0° (Epoch: 10 December)

Event Time Altitude Azimuth Distance (km) Brightness Sun altitude
Rises 09:36:14 0° 264° (W) 2,681 7.7 -14.5°
Reaches altitude 10° 09:38:28 10° 260° (W) 1,792 6.8 -14.7°
Maximum altitude 09:42:31 65° 177° (S) 593 3.9 -15.0°
Drops below altitude 10° 09:46:34 10° 94° (E) 1,794 6.0 -15.4°
Enters shadow 09:47:08 - 93° (E) 2,016 6.2 -15.4°
